Regional Weather Roundup
Issued by NWS Sterling, VA

Home | Current Version | Previous Version | Text Only | Print | Product List | Glossary Off
Versions: 1 2 3 4 5 6 7 8 9 10 11 12 13 14 15 16 17 18 19 20 21 22 23 24 25 26 27 28

000
ASUS41 KLWX 262110
RWRLWX

REGIONAL WEATHER ROUNDUP
NATIONAL WEATHER SERVICE BALTIMORE MD/WASHINGTON DC
500 PM EDT THU MAY 26 2016

Note: "FAIR" indicates few or no clouds below 12,000 feet
with no significant weather and/or obstructions to visibility.
 TC=TEMPERATURE CELSIUS

 * =Non NWS site. Station does not report precipitation (e.g. rain,
    snow, etc.), thunder, or fog.

DCZ001-MDZ009-015-VAZ040>042-051-053>054-262200-
WASHINGTON METRO

CITY           SKY/WX    TMP DP  RH WIND       PRES   REMARKS
WASHINGTON NAT PTSUNNY   88  64  44 S13       30.02F
DULLES         FAIR      88  61  40 SW14      30.03F
ANDREWS AFB    MOSUNNY   88  62  41 SW12      30.03F
FT BELVOIR     FAIR      89  63  42 VRB5      30.02F
QUANTICO       PTSUNNY   81  69  67 VRB5      30.03F
COLLEGE PARK*  FAIR      88  61  40 S5        30.02F
LEESBURG*      FAIR      90  64  43 S6G20     30.03F HX  91
MANASSAS*      SUNNY     90  63  40 SW9       30.03F HX  90

$$

MDZ006>007-011-014-262200-
BALTIMORE METRO

CITY           SKY/WX    TMP DP  RH WIND       PRES   REMARKS
BWI AIRPORT    PTSUNNY   88  61  40 SW8       30.02F
MD SCIENCE CTR   N/A     91  60  35 MISG      30.02F HX  90
MARTIN STATE   MOSUNNY   86  70  58 SE9       30.04F HX  90
ANNAPOLIS      SUNNY     82  65  56 S10       30.03F
FORT MEADE*    MOSUNNY   86  63  45 SW8       30.05S

$$

MDZ012-015-019>023-262200-
MARYLAND EASTERN SHORE

CITY           SKY/WX    TMP DP  RH WIND       PRES   REMARKS
OCEAN CITY     SUNNY     74  66  76 S8        30.08F
SALISBURY      SUNNY     88  56  33 S10       30.06F
BAY BRIDGE AP* SUNNY     88  64  45 S12       30.03F
CAMBRIDGE*     SUNNY     86  63  45 S9        30.05S
EASTON*          N/A     90  68  48 S7        30.08F HX  93

$$

MDZ017>025-262200-
SOUTHERN MARYLAND

CITY           SKY/WX    TMP DP  RH WIND       PRES   REMARKS
PATUXENT RIVER MOSUNNY   82  66  58 SE10      30.04F
ST INIGOES     SUNNY     86  64  47 S7        30.04F
LEONARDTOWN*   SUNNY     88  55  33 SW8       30.06F

$$

MDZ003>005-262200-
NORTH CENTRAL MARYLAND

CITY           SKY/WX    TMP DP  RH WIND       PRES   REMARKS
FREDERICK*     MOSUNNY   90  68  48 S6        30.05F HX  93
HAGERSTOWN APT MOSUNNY   87  57  35 S10       30.03F
WESTMINSTER*   SUNNY     91  86  84 SW8       30.05F HX 122

$$

MDZ501>502-262200-
WESTERN MARYLAND

CITY           SKY/WX    TMP DP  RH WIND       PRES   REMARKS
OAKLAND*       CLOUDY    73  57  56 W6        30.15F
CUMBERLAND*    PTSUNNY   73  64  73 W8        30.09R

$$

VAZ025>031-262200-
SHENANDOAH VALLEY

CITY           SKY/WX    TMP DP  RH WIND       PRES   REMARKS
WINCHESTER*    FAIR      88  61  40 S7        30.03F
FRONT ROYAL*   MOCLDY    86  61  42 S6        30.03F
LURAY*         FAIR      86  61  42 S8        30.04F
NEW MARKET*    FAIR      85  65  52 S8        30.01F
STAUNTON*      FAIR      82  62  49 S10       30.08F
WAYNESBORO*    FAIR      81  60  49 SW5       30.09F

$$

WVZ021-048>050-054>055-262200-
EASTERN WEST VIRGINIA PANHANDLE

CITY           SKY/WX    TMP DP  RH WIND       PRES   REMARKS
MARTINSBURG    PTSUNNY   84  64  50 S8        30.02F
PETERSBURG*    LGT RAIN  75  69  82 NW6       30.07R

$$

VAZ036>039-050-262200-
CENTRAL FOOTHILLS

CITY           SKY/WX    TMP DP  RH WIND       PRES   REMARKS
CHARLOTTESVILL FAIR      85  62  46 SW8       30.05F
CULPEPER*      FAIR      89  65  44 S9        30.04S HX  90
ORANGE*        FAIR      88  63  42 SW9G16    30.07S
GORDONSVILLE*  FAIR      86  65  49 S14       30.04F
WARRENTON*     FAIR      85  57  38 S8        30.03F

$$

VAZ055>057-262200-
NORTH AND CENTRAL PIEDMONT

CITY           SKY/WX    TMP DP  RH WIND       PRES   REMARKS
FREDERICKSBRG* NOT AVBL
STAFFORD*      FAIR      87  61  42 S6        30.07F

$$

NCZ024-NYZ072-PAZ021-071-VAZ022-071-262200-
OTHER REGIONAL OBSERVATIONS

CITY           SKY/WX    TMP DP  RH WIND       PRES   REMARKS
NEW YORK CITY  MOSUNNY   85  50  29 VRB5      30.07S
PHILADELPHIA   MOSUNNY   88  54  31 SW8       30.04F
PITTSBURGH     PTSUNNY   80  60  50 SW12      30.03F
ROANOKE        PTSUNNY   79  64  60 VRB5      30.12S
RICHMOND       FAIR      88  59  37 S13       30.05F
RALEIGH        MOSUNNY   88  62  41 W10       30.10F

$$

ANZ530>537-262200-
MARINE OBSERVATIONS

STATION/POSITION TIME  TEMP    WIND        PRES
                       AIR SEA DIR/SP/G
                 (UTC) (F)     (DEG/KT/KT) (MB)
THOMAS PT LIGHT  2100   72 67  190/ 11/ 12 1018.2F
BALT KEY BRIDGE  2000   83     130/ 14/ 15 1016.6F
COVE POINT       2000   72     190/ 11/ 13 1018.4F
LEWISETTA        2000   87 74  220/ 10/ 11 1017.4F
SOLOMONS ISLAND  2000   75 67   70/  3/  6   N/A
PINEY POINT      2000          130/  6/  7   N/A

$$





USA.gov is the U.S. government's official web portal to all federal, state and local government web resources and services.